Flag Weather past 2 weeks in Eau Claire, Wisconsin, U.S.A.

Now
26 °F

Clear.


Feels Like: 21 °F
Forecast: 20 / 44 °F
Wind: 5 mph from Northeast

Location: Eau Claire County Airport

Current Time: Oct 31, 2014 at 8:59:26 PM

Latest Report: Oct 31, 2014 at 7:56 PM


Visibility: 10 mi

Pressure: 30.52 "Hg

Humidity: 69%

Dew point: 17 °F

Location of Eau ClaireLocation

Historic Weather in Eau Claire — Graph

°F

Eau Claire temperature yesterday

Maximum temperature yesterday: 48 °F (at 12:56 PM)
Minimum temperature yesterday: 32 °F (at 11:56 PM)
Average temperature yesterday: 40 °F

Past Weeks' High & Low Weather Summary

 TemperatureHumidityPressure
High67 °F (Oct 27, 3:56 PM)97% (Oct 21, 2:56 AM)30.52 "Hg (Oct 21, 2:56 AM)
Low26 °F (Oct 31, 7:56 PM)25% (Oct 25, 3:56 PM)29.52 "Hg (Oct 27, 2:56 PM)
Average47 °F69%29.99 "Hg
* Reported Oct 16 7:56 PM — Oct 31 7:56 PM, Eau Claire, Weather by CustomWeather, © 2014

Note: Actual official high and low records may vary slightly from our data, if they occured in-between our weather recording intervals... More about our weather records

Advertising

Eau Claire weather history for previous 24 hours

 ConditionsComfort  
Time TempWeatherWind HumidityBarometerVisibility
7:56 PM
Oct 31
26 °FClear.5 mph69%30.52 "Hg10 mi
6:56 PM31 °FClear.5 mph57%30.52 "Hg10 mi
5:56 PM35 °FSunny.5 mph48%30.50 "Hg10 mi
4:56 PM39 °FPassing clouds.8 mph39%30.50 "Hg10 mi
3:56 PM39 °FPassing clouds.7 mph41%30.49 "Hg10 mi
2:56 PM40 °FScattered clouds.14 mph41%30.50 "Hg10 mi
1:56 PM39 °FScattered clouds.9 mph43%30.50 "Hg10 mi
12:56 PM39 °FPartly sunny.12 mph45%30.51 "Hg10 mi
11:56 AM36 °FOvercast.18 mph48%30.52 "Hg10 mi
10:56 AM35 °FPartly sunny.12 mph54%30.51 "Hg10 mi
9:56 AM33 °FSunny.13 mph58%30.51 "Hg10 mi
8:56 AM30 °FSunny.10 mph64%30.49 "Hg10 mi
7:56 AM28 °FClear.9 mph66%30.45 "Hg10 mi
6:56 AM28 °FClear.12 mph69%30.44 "Hg10 mi
5:56 AM30 °FPassing clouds.12 mph61%30.42 "Hg10 mi
4:56 AM30 °FPassing clouds.9 mph64%30.39 "Hg10 mi
3:56 AM32 °FPassing clouds.15 mph56%30.36 "Hg10 mi
2:56 AM30 °FClear.12 mph64%30.34 "Hg10 mi
1:56 AM31 °FPassing clouds.15 mph64%30.31 "Hg10 mi
12:56 AM31 °FClear.17 mph59%30.29 "Hg10 mi
11:56 PM
Oct 30
32 °FClear.13 mph56%30.27 "Hg10 mi
10:56 PM35 °FOvercast.12 mph52%30.24 "Hg10 mi
9:56 PM36 °FMostly cloudy.14 mph70%30.22 "Hg9 mi
8:56 PM42 °FMostly cloudy.14 mph60%30.18 "Hg10 mi
Weather by CustomWeather, © 2014

See weather overviewHow to use our weather pages